CW9181 Weather Reports


time (UTC)temp
C
wind
direction
speed
KPH
gust
KPH
rain 1hr
cm
rain 24hr
cm
rain mn
cm
humidity
%
barometer
mb
20260502230832 23 151 3.2 11.3 0.00 0.00 0.00 49 1010.3
20260502225812 23 188 3.2 12.9 0.00 0.00 0.00 50 1010.5
20260502224807 23 233 1.6 8.0 0.00 0.00 0.00 49 1010.7
20260502223806 23 166 3.2 12.9 0.00 0.00 0.00 50 1010.8
20260502222830 23 207 4.8 12.9 0.00 0.00 0.00 53 1011.0
20260502221828 23 149 1.6 12.9 0.00 0.00 0.00 55 1011.3
20260502220831 22 195 3.2 12.9 0.00 0.00 0.00 55 1011.3
20260502215809 22 211 6.4 14.5 0.00 0.00 0.00 53 1011.5
20260502214813 22 222 9.7 16.1 0.00 0.00 0.00 53 1011.6
20260502213815 22 265 4.8 12.9 0.00 0.00 0.00 54 1011.6
20260502212812 22 239 3.2 16.1 0.00 0.00 0.00 56 1011.8
20260502211814 22 169 4.8 11.3 0.00 0.00 0.00 56 1012.0
20260502210818 22 220 8.0 16.1 0.00 0.00 0.00 55 1012.1
20260502205818 22 211 1.6 8.0 0.00 0.00 0.00 60 1012.1
20260502204817 21 235 3.2 17.7 0.00 0.00 0.00 61 1012.3
20260502203814 21 157 8.0 16.1 0.00 0.00 0.00 59 1012.4
20260502202819 21 157 6.4 14.5 0.00 0.00 0.00 62 1012.4
20260502201836 21 159 8.0 14.5 0.00 0.00 0.00 61 1012.6
20260502200816 20 164 6.4 16.1 0.00 0.00 0.00 63 1012.5
20260502195817 19 134 6.4 14.5 0.00 0.00 0.00 64 1012.5
20260502194813 19 162 6.4 12.9 0.00 0.00 0.00 65 1012.7
20260502193816 18 142 8.0 16.1 0.00 0.00 0.00 65 1012.7
20260502192818 19 145 8.0 12.9 0.00 0.00 0.00 66 1012.8
20260502191835 18 162 8.0 16.1 0.00 0.00 0.00 66 1012.9
20260502190834 18 178 9.7 17.7 0.00 0.00 0.00 67 1013.0
20260502185827 18 107 3.2 11.3 0.00 0.00 0.00 70 1013.2
20260502184822 18 151 3.2 14.5 0.00 0.00 0.00 70 1013.0
20260502183842 18 214 3.2 12.9 0.00 0.00 0.00 71 1012.9
20260502182817 17 207 6.4 14.5 0.00 0.00 0.00 71 1012.9
20260502181817 17 173 4.8 12.9 0.00 0.00 0.00 72 1013.1
20260502180840 17 153 4.8 14.5 0.00 0.00 0.00 72 1013.0
20260502163819 16 172 6.4 9.7 0.00 0.00 0.00 76 1013.0
20260502162816 16 148 6.4 14.5 0.00 0.00 0.00 76 1012.8
20260502161817 15 165 4.8 14.5 0.00 0.00 0.00 77 1012.8
20260502160819 15 158 8.0 14.5 0.00 0.00 0.00 76 1012.6
20260502151823 13 100 3.2 11.3 0.00 0.00 0.00 82 1012.4
20260502150808 13 130 6.4 14.5 0.00 0.00 0.00 83 1012.3
20260502122805 12 127 3.2 8.0 0.00 0.00 0.00 84 1011.1
20260502121808 12 166 3.2 9.7 0.00 0.00 0.00 83 1011.2
20260502120806 12 193 3.2 14.5 0.00 0.00 0.00 83 1011.1
20260502115805 12 137 6.4 12.9 0.00 0.00 0.00 82 1011.2
20260502114808 12 155 6.4 11.3 0.00 0.00 0.00 82 1011.4
20260502113804 13 150 8.0 12.9 0.00 0.00 0.00 81 1011.5
20260502112803 13 176 4.8 11.3 0.00 0.00 0.00 81 1011.5
20260502111807 13 165 6.4 16.1 0.00 0.00 0.00 81 1011.2
20260502110808 13 177 4.8 12.9 0.00 0.00 0.00 81 1011.2
20260502105811 13 136 3.2 9.7 0.00 0.00 0.00 80 1011.3
20260502104813 13 174 3.2 11.3 0.00 0.00 0.00 80 1011.4
20260502103834 13 139 3.2 8.0 0.00 0.00 0.00 80 1011.4
20260502102840 13 159 4.8 12.9 0.00 0.00 0.00 80 1011.4
20260502101841 13 116 3.2 11.3 0.00 0.00 0.00 80 1011.4
20260502100819 14 151 3.2 12.9 0.00 0.00 0.00 79 1011.3
20260502090812 15 137 1.6 8.0 0.00 0.00 0.00 78 1011.6
20260502070819 16 182 6.4 16.1 0.00 0.00 0.00 77 1011.8
20260502065831 17 151 3.2 14.5 0.00 0.00 0.00 77 1011.8
20260502064822 17 140 6.4 12.9 0.00 0.00 0.00 77 1011.7
20260502063822 17 110 4.8 11.3 0.00 0.00 0.00 76 1011.7
20260502062823 17 130 4.8 11.3 0.00 0.00 0.00 75 1011.5
20260502061819 18 193 8.0 14.5 0.00 0.00 0.00 75 1011.5
20260502060816 18 144 6.4 12.9 0.00 0.00 0.00 74 1011.7
20260502055835 18 149 4.8 12.9 0.00 0.00 0.00 74 1011.7
20260502054809 18 171 6.4 11.3 0.00 0.00 0.00 73 1011.7
20260502053806 19 126 6.4 16.1 0.00 0.00 0.00 72 1011.6
20260502052825 19 192 6.4 11.3 0.00 0.00 0.00 71 1011.7
20260502051822 20 151 4.8 11.3 0.00 0.00 0.00 70 1011.5
20260502050816 20 156 4.8 11.3 0.00 0.00 0.00 70 1011.5
20260502045808 20 132 0.0 4.8 0.00 0.00 0.00 68 1011.4
20260502044822 20 168 1.6 6.4 0.00 0.00 0.00 67 1011.3
20260502043819 21 193 1.6 6.4 0.00 0.00 0.00 66 1011.2
20260502042818 21 159 0.0 9.7 0.00 0.00 0.00 65 1011.1
20260502041810 21 199 3.2 9.7 0.00 0.00 0.00 64 1011.1
20260502040806 22 182 1.6 6.4 0.00 0.00 0.00 63 1011.0
20260502035823 22 192 3.2 14.5 0.00 0.00 0.00 61 1010.8
20260502034815 22 223 1.6 11.3 0.00 0.00 0.00 59 1010.7
20260502033815 23 214 3.2 9.7 0.00 0.00 0.00 56 1010.5
20260502032815 23 188 1.6 8.0 0.00 0.00 0.00 54 1010.4
20260502031827 23 191 3.2 12.9 0.00 0.00 0.00 53 1010.3
20260502030822 23 160 8.0 14.5 0.00 0.00 0.00 54 1010.2
20260502025820 24 172 3.2 9.7 0.00 0.00 0.00 56 1010.2
20260502024817 25 177 3.2 6.4 0.00 0.00 0.00 55 1010.1
20260502023819 25 195 3.2 6.4 0.00 0.00 0.00 54 1010.0
20260502022822 25 171 4.8 11.3 0.00 0.00 0.00 54 1009.9
20260502021819 26 169 3.2 12.9 0.00 0.00 0.00 53 1009.9
20260502020819 26 187 4.8 12.9 0.00 0.00 0.00 52 1009.9
20260502015817 26 178 6.4 17.7 0.00 0.00 0.00 51 1010.0
20260502014833 26 142 8.0 16.1 0.00 0.00 0.00 50 1010.0
20260502013812 27 199 8.0 16.1 0.00 0.00 0.00 50 1010.0
20260502012811 27 149 4.8 14.5 0.00 0.00 0.00 47 1010.0
20260502011844 27 161 4.8 12.9 0.00 0.00 0.00 46 1010.1
20260502010840 28 110 6.4 16.1 0.00 0.00 0.00 45 1010.2
20260502005817 28 96 6.4 11.3 0.00 0.00 0.00 45 1010.2
20260502004814 28 176 6.4 12.9 0.00 0.00 0.00 47 1010.3
20260502003814 28 144 6.4 14.5 0.00 0.00 0.00 45 1010.3
20260502002809 28 243 4.8 12.9 0.00 0.00 0.00 44 1010.3
20260502001843 28 188 9.7 14.5 0.00 0.00 0.00 44 1010.3
20260502000822 28 172 3.2 11.3 0.00 0.00 0.00 43 1010.4
20260501235819 28 201 8.0 14.5 0.00 0.00 0.00 42 1010.4
20260501234827 28 114 1.6 11.3 0.00 0.00 0.00 39 1010.6
20260501233830 28 154 6.4 12.9 0.00 0.00 0.00 38 1010.7
20260501232822 28 166 3.2 14.5 0.00 0.00 0.00 40 1010.7
20260501231841 29 150 4.8 12.9 0.00 0.00 0.00 41 1010.9